Wind_Speed
58 57 56 54 53 51 49 47 46 44 42 41 39 37 36 36 35 34 34 33 32 31 30 29 28 27 27 27 27 27 28 28 28 29 30 30 30 31 32 33 34 35 36
60 59 57 56 55 53 50 49 47 45 43 41 39 38 38 37 36 35 34 33 32 31 31 30 29 28 28 28 28 28 28 29 29 30 31 31 31 32 33 34 35 35 36
61 59 58 56 55 54 52 50 48 46 44 42 41 41 40 38 37 35 34 34 33 32 31 30 30 30 29 29 29 29 30 30 31 31 31 32 32 33 34 35 35 36 37
61 60 59 57 56 55 53 51 49 47 45 44 43 41 39 37 36 36 35 35 34 33 32 31 31 31 31 31 31 31 31 31 31 32 32 33 33 34 34 35 36 36 37
61 60 60 58 56 55 54 52 50 49 47 45 43 41 40 38 37 37 36 35 35 34 33 33 33 32 32 32 32 31 32 32 32 32 33 33 34 35 35 35 36 37 37
60 59 59 59 57 56 56 53 52 50 48 46 44 42 40 39 38 37 37 36 35 35 34 34 34 33 33 33 32 32 32 33 33 34 34 34 35 35 35 36 36 37 38
58 59 59 59 58 57 56 55 53 51 49 47 46 43 41 40 39 37 37 36 35 34 34 34 34 34 34 34 33 33 33 33 34 35 35 35 36 36 36 37 37 38 38
58 59 59 58 58 57 57 56 53 51 49 48 46 45 43 41 39 38 38 37 35 35 35 35 35 35 34 34 33 33 33 34 35 35 35 36 36 36 37 37 38 38 38
57 58 59 58 58 57 56 55 54 52 50 48 46 46 44 42 40 39 38 37 36 36 36 36 35 35 34 34 34 34 34 35 35 36 36 36 36 37 37 38 38 38 38
56 57 58 58 58 57 56 55 54 53 51 49 46 45 44 43 41 40 39 37 36 36 36 36 36 36 35 35 35 35 36 36 36 36 36 36 36 37 38 38 38 39 39
52 55 57 58 57 57 57 56 55 53 52 50 48 46 44 43 42 41 39 38 36 36 35 35 35 36 36 36 36 36 36 36 36 36 36 36 37 37 38 38 39 39 39
49 51 53 55 56 55 55 55 54 54 52 51 50 48 46 45 43 41 40 39 38 37 37 36 36 36 36 36 36 36 36 36 36 36 37 37 37 37 37 38 39 39 40
48 49 51 53 54 54 54 54 54 53 52 51 50 49 47 45 44 42 41 40 39 38 37 37 37 36 36 36 36 36 36 36 36 37 36 36 37 37 37 38 38 39 41
46 47 49 51 52 53 52 53 53 52 52 52 51 50 48 46 45 44 43 42 42 40 39 38 38 37 37 37 36 36 36 36 36 37 36 36 36 37 38 37 37 39 40
44 46 48 50 52 52 52 51 51 52 52 51 51 49 47 46 46 46 44 44 43 41 40 40 40 39 38 37 36 37 36 36 37 36 35 35 36 36 37 37 37 39 40
42 44 46 49 51 52 52 51 51 51 52 51 50 49 47 46 46 46 45 44 43 42 42 41 40 39 38 37 37 36 37 36 36 35 35 35 35 36 37 37 37 38 40
41 43 44 46 48 50 51 51 50 51 52 52 51 50 48 47 46 46 45 44 44 43 41 40 39 39 38 37 36 36 35 35 35 34 35 35 36 36 36 36 37 39 41
38 41 43 45 46 47 48 49 50 51 52 51 50 50 49 47 46 46 45 43 43 42 41 40 39 39 38 37 36 35 35 34 34 34 34 34 35 36 36 37 38 40 42
36 40 42 44 45 45 46 47 49 50 50 50 50 49 49 48 47 46 45 43 42 41 40 39 39 38 37 36 35 34 34 34 34 34 34 34 35 35 36 37 39 41 42
36 38 40 41 43 43 44 45 47 48 48 48 48 47 47 47 45 43 43 42 41 40 39 38 37 36 35 34 33 33 33 33 34 33 33 33 34 35 36 38 39 41 43
36 37 38 40 40 41 43 44 44 45 45 45 45 44 44 43 43 42 41 41 41 40 39 37 36 35 34 33 32 32 33 32 32 32 33 34 34 35 36 37 39 41 43
36 36 37 38 40 40 41 41 42 43 43 43 43 43 42 42 41 41 40 39 39 38 37 35 35 34 33 32 31 31 31 32 32 32 33 33 34 35 36 37 39 42 43
35 37 37 38 39 40 41 41 42 42 42 42 41 41 41 40 39 39 39 38 37 36 35 34 33 32 31 31 31 31 31 31 32 32 32 33 34 35 36 37 39 41 44
35 37 38 38 38 39 41 41 41 41 40 40 39 39 39 38 38 37 36 35 34 34 33 32 31 30 30 30 30 30 30 31 31 31 31 32 34 35 36 38 39 41 44
35 36 37 37 37 39 41 41 41 40 39 38 37 37 36 36 35 35 34 33 31 31 31 30 30 29 29 29 29 29 29 30 30 31 31 33 33 35 36 37 39 42 44
37 36 37 37 37 38 40 40 40 39 38 38 37 35 35 35 33 32 31 31 30 29 29 28 28 27 27 27 27 28 28 29 30 30 31 31 33 34 35 37 40 42 44
Wind_Direction
220 220 220 220 221 220 221 221 221 222 224 224 225 225 226 226 227 228 230 232 234 236 239 242 244 249 254 260 265 271 275 279 283 286 290 293 296 299 301 303 304 306 308
218 219 220 220 220 220 221 221 222 222 224 225 225 226 226 226 227 228 229 232 234 237 240 243 246 250 255 261 266 271 274 278 282 286 289 292 295 298 300 302 303 305 307
217 218 218 219 220 220 220 221 222 222 223 225 225 226 226 226 227 229 230 233 235 238 241 244 247 252 257 261 266 272 275 278 282 285 288 291 294 297 299 301 303 304 306
217 217 218 219 220 220 221 221 222 223 223 224 225 226 227 228 229 230 232 234 236 239 242 245 249 253 258 262 267 272 275 278 281 284 287 290 293 296 298 300 302 304 305
218 217 218 218 219 220 221 222 222 222 223 224 224 226 227 228 228 230 232 234 236 240 243 247 250 254 257 262 268 272 275 278 280 283 287 290 293 295 296 299 301 303 304
218 218 218 218 219 220 221 221 222 222 223 224 224 225 227 229 230 232 234 236 238 241 244 247 251 254 258 262 267 272 275 276 279 283 286 289 292 294 295 298 300 302 303
219 218 218 218 219 220 220 221 222 222 223 224 224 225 228 230 232 234 236 238 240 242 245 247 251 255 258 262 267 272 274 276 278 282 286 289 290 293 295 297 299 301 302
218 217 217 218 219 220 220 221 222 223 223 224 224 225 228 230 232 235 237 239 241 243 245 248 251 255 258 262 267 270 272 274 278 282 285 288 290 292 294 297 298 299 301
217 217 217 217 218 219 220 221 222 223 223 224 225 226 228 230 233 235 238 240 242 244 247 250 252 254 257 262 266 269 271 274 278 282 285 288 289 292 294 296 298 299 300
217 217 217 217 218 219 220 221 221 223 224 224 225 226 228 230 233 235 237 240 242 245 248 251 253 254 258 262 266 269 271 274 278 281 284 287 289 291 293 296 297 298 299
217 217 218 218 218 219 220 220 221 222 223 224 225 226 227 230 233 235 237 240 242 245 249 252 254 256 258 262 265 268 270 274 277 281 284 286 288 291 293 295 297 297 299
214 216 217 218 218 219 220 221 221 222 223 224 226 226 227 228 231 234 238 240 243 247 250 252 254 256 258 261 264 266 270 274 276 280 283 285 287 290 292 294 295 296 298
213 214 216 216 217 218 219 220 221 222 223 224 225 226 227 229 231 233 236 240 243 247 249 252 254 256 259 261 263 267 270 273 276 279 282 284 287 289 292 294 295 296 298
214 214 215 215 216 217 219 219 219 221 222 223 225 227 228 230 232 233 235 239 243 246 248 251 254 256 259 261 264 266 270 274 276 279 281 283 286 289 291 293 294 295 297
214 215 215 215 215 217 218 218 219 220 221 223 225 227 228 230 231 233 235 238 241 244 247 250 252 256 259 261 264 267 270 273 276 278 280 283 286 288 290 292 294 295 297
213 214 213 213 215 216 218 218 219 219 220 222 224 226 227 229 231 234 236 238 240 243 246 248 251 254 257 260 263 267 270 272 275 278 281 283 286 288 290 291 293 294 298
211 213 213 212 214 215 217 218 219 219 220 221 223 224 227 229 230 233 236 238 240 243 244 247 250 253 255 258 261 266 269 271 274 278 281 283 285 288 290 291 292 295 299
209 210 212 213 213 214 216 217 218 218 219 220 222 224 225 228 230 232 234 238 240 242 244 246 249 251 254 257 261 264 268 271 274 277 280 283 286 288 288 290 294 297 300
208 209 210 212 213 214 215 216 217 218 219 220 221 223 225 227 229 231 233 235 238 240 242 245 248 251 254 256 260 264 267 270 274 277 280 283 286 288 289 292 296 299 302
209 206 206 209 212 213 215 216 217 218 218 218 220 223 226 227 228 230 232 234 236 239 241 244 247 250 253 256 260 263 266 270 273 277 280 283 286 288 291 294 298 301 303
209 209 209 210 211 213 214 214 214 216 216 217 218 221 224 226 228 229 231 233 235 238 241 243 245 248 252 256 258 262 266 270 273 276 280 283 286 289 292 296 300 303 305
210 212 211 210 211 212 212 212 212 213 214 216 217 219 221 223 226 228 230 233 235 237 239 241 245 248 251 254 258 262 266 269 272 276 281 284 287 291 295 298 301 304 307
211 213 211 210 210 210 210 211 210 210 212 214 215 217 219 221 224 227 229 232 233 235 238 241 243 246 250 254 258 260 264 268 273 277 281 285 289 293 297 300 303 306 308
211 211 211 211 210 209 208 209 209 209 211 212 214 215 218 221 223 225 226 228 232 233 235 239 243 246 249 254 257 260 264 269 274 278 282 287 291 294 298 301 304 307 310
212 211 211 210 210 210 208 208 209 208 209 210 211 214 216 217 219 221 223 225 228 231 234 238 242 245 250 254 258 262 266 270 275 280 284 288 292 296 300 303 306 309 312
212 211 211 209 209 208 208 209 207 206 206 207 209 211 212 214 216 218 221 224 228 230 233 237 241 245 250 255 259 263 267 272 276 281 286 290 294 298 302 305 308 311 314
Height
5677 5686 5694 5703 5711 5719 5726 5733 5740 5746 5752 5758 5763 5768 5773 5777 5781 5786 5789 5793 5796 5799 5802 5804 5806 5808 5810 5810 5811 5811 5811 5810 5809 5808 5806 5804 5802 5800 5797 5794 5790 5787 5783
5664 5674 5683 5692 5700 5709 5717 5725 5732 5738 5745 5751 5757 5762 5766 5770 5774 5778 5782 5786 5790 5793 5796 5798 5800 5802 5803 5804 5805 5805 5804 5804 5803 5802 5800 5798 5796 5793 5790 5787 5784 5780 5776
5653 5663 5673 5682 5691 5699 5708 5716 5723 5731 5737 5743 5748 5753 5758 5763 5768 5772 5776 5780 5783 5786 5789 5792 5794 5795 5797 5798 5798 5798 5798 5797 5796 5795 5794 5791 5789 5787 5784 5780 5777 5773 5770
5642 5652 5662 5672 5681 5691 5699 5707 5715 5722 5729 5734 5740 5746 5752 5758 5762 5766 5770 5773 5777 5780 5783 5785 5787 5789 5790 5791 5791 5791 5791 5790 5789 5788 5786 5785 5782 5780 5777 5774 5770 5766 5762
5633 5643 5652 5662 5672 5681 5689 5697 5705 5712 5720 5726 5733 5739 5745 5750 5754 5758 5762 5766 5769 5773 5776 5778 5780 5782 5783 5784 5784 5784 5784 5783 5782 5781 5779 5777 5775 5773 5770 5767 5763 5759 5755
5623 5633 5643 5652 5660 5669 5678 5687 5695 5703 5710 5717 5724 5731 5737 5742 5747 5751 5755 5758 5762 5765 5768 5771 5773 5774 5776 5777 5777 5777 5776 5776 5775 5774 5772 5770 5768 5765 5763 5760 5756 5752 5748
5613 5622 5631 5640 5650 5659 5668 5677 5685 5694 5702 5709 5716 5723 5728 5734 5739 5743 5747 5751 5755 5758 5761 5763 5765 5767 5768 5769 5769 5769 5769 5768 5767 5766 5765 5763 5761 5758 5755 5752 5749 5745 5741
5600 5610 5621 5631 5640 5649 5659 5668 5676 5685 5693 5700 5708 5714 5720 5725 5731 5736 5740 5743 5747 5750 5753 5755 5757 5759 5760 5761 5762 5762 5761 5760 5760 5758 5757 5755 5753 5750 5748 5745 5741 5738 5734
5590 5600 5611 5620 5630 5639 5649 5659 5667 5676 5684 5692 5699 5705 5711 5717 5722 5727 5731 5735 5739 5742 5744 5747 5749 5751 5752 5753 5754 5754 5753 5753 5752 5751 5749 5747 5745 5742 5740 5737 5733 5730 5726
5581 5591 5600 5610 5620 5630 5639 5648 5657 5666 5674 5682 5689 5696 5702 5708 5714 5718 5723 5728 5731 5733 5736 5738 5740 5742 5744 5745 5745 5746 5745 5745 5744 5743 5741 5739 5737 5734 5731 5728 5725 5721 5717
5571 5581 5591 5600 5610 5619 5628 5637 5647 5656 5664 5672 5680 5686 5693 5699 5704 5710 5715 5719 5722 5725 5728 5730 5732 5734 5735 5736 5737 5737 5737 5737 5736 5735 5733 5731 5729 5726 5723 5720 5716 5713 5708
5562 5571 5581 5590 5599 5608 5618 5627 5637 5646 5654 5662 5670 5677 5683 5689 5695 5701 5706 5710 5714 5717 5719 5722 5724 5725 5727 5728 5729 5729 5729 5729 5728 5726 5725 5723 5720 5718 5715 5711 5708 5704 5700
5553 5561 5570 5579 5589 5598 5608 5618 5627 5636 5645 5652 5659 5666 5673 5680 5686 5692 5697 5701 5705 5708 5711 5713 5715 5717 5718 5719 5720 5721 5721 5720 5719 5718 5717 5715 5712 5710 5706 5703 5699 5695 5691
5545 5553 5562 5571 5580 5589 5598 5608 5617 5626 5634 5642 5649 5657 5664 5671 5677 5682 5687 5692 5696 5699 5702 5705 5707 5708 5710 5711 5712 5712 5712 5712 5711 5710 5708 5706 5704 5701 5698 5695 5691 5687 5683
5537 5545 5553 5562 5571 5580 5589 5598 5607 5615 5624 5632 5640 5648 5655 5661 5666 5672 5677 5682 5686 5690 5693 5696 5698 5699 5701 5702 5703 5704 5704 5703 5702 5701 5700 5698 5695 5693 5690 5686 5683 5679 5674
5529 5537 5545 5553 5562 5571 5580 5589 5597 5605 5613 5622 5631 5638 5644 5651 5657 5662 5668 5672 5676 5680 5684 5687 5689 5691 5692 5694 5695 5695 5695 5694 5694 5693 5691 5689 5687 5684 5681 5678 5674 5670 5666
5521 5529 5537 5545 5553 5562 5570 5579 5587 5595 5603 5612 5620 5627 5634 5641 5647 5653 5658 5663 5667 5671 5674 5677 5680 5682 5684 5685 5686 5686 5686 5686 5685 5684 5683 5681 5678 5676 5672 5669 5665 5661 5656
5514 5521 5529 5537 5545 5553 5561 5569 5576 5584 5593 5602 5610 5617 5624 5631 5637 5642 5648 5653 5657 5661 5665 5668 5671 5673 5675 5676 5677 5678 5678 5678 5677 5676 5674 5672 5670 5667 5664 5660 5656 5652 5647
5507 5514 5521 5529 5536 5544 5551 5559 5567 5575 5583 5592 5600 5607 5614 5621 5627 5633 5638 5643 5648 5652 5655 5659 5661 5664 5666 5668 5669 5669 5670 5669 5669 5668 5666 5664 5662 5659 5655 5652 5648 5644 5638
5500 5507 5514 5521 5529 5536 5543 5551 5558 5566 5574 5583 5590 5598 5605 5611 5618 5623 5629 5634 5638 5642 5646 5649 5652 5655 5657 5659 5660 5661 5661 5661 5660 5659 5658 5656 5653 5650 5647 5643 5639 5635 5629
5494 5500 5507 5514 5521 5528 5535 5543 5550 5558 5566 5574 5581 5588 5595 5602 5608 5614 5619 5624 5629 5633 5637 5640 5644 5647 5649 5651 5652 5653 5653 5653 5652 5651 5649 5647 5645 5642 5638 5634 5630 5625 5620
5488 5494 5501 5507 5514 5521 5528 5535 5543 5551 5558 5566 5573 5580 5587 5593 5599 5605 5610 5615 5620 5624 5628 5632 5635 5638 5641 5643 5644 5645 5645 5645 5644 5643 5641 5639 5636 5633 5630 5626 5622 5616 5611
5482 5488 5494 5501 5507 5514 5522 5529 5536 5544 5551 5558 5565 5572 5579 5585 5591 5597 5602 5607 5611 5616 5620 5624 5627 5631 5633 5635 5636 5636 5637 5636 5636 5635 5633 5631 5628 5625 5621 5617 5613 5607 5601
5475 5482 5488 5495 5501 5508 5515 5523 5530 5537 5544 5551 5559 5565 5572 5577 5584 5589 5594 5599 5604 5609 5613 5617 5620 5623 5625 5627 5628 5628 5629 5628 5628 5626 5625 5622 5620 5617 5613 5609 5604 5598 5592
5469 5475 5482 5488 5495 5502 5509 5516 5524 5531 5538 5545 5552 5559 5565 5571 5577 5582 5588 5593 5598 5602 5606 5610 5613 5616 5618 5619 5621 5621 5621 5621 5620 5618 5617 5615 5612 5609 5605 5600 5595 5589 5582
5462 5469 5475 5482 5489 5496 5504 5511 5518 5525 5532 5539 5546 5553 5559 5565 5571 5576 5582 5586 5591 5595 5599 5603 5606 5608 5610 5612 5613 5613 5613 5613 5612 5611 5609 5607 5604 5601 5596 5592 5586 5580 5573